Regional Weather Roundup
Issued by NWS Midland/Odessa, TX

Home | Current Version | Previous Version | Text Only | Print | Product List | Glossary On
Versions: 1 2 3 4 5 6 7 8 9 10 11 12 13 14 15 16 17 18 19 20 21 22 23 24 25 26 27 28 29 30 31 32 33 34 35 36 37 38 39 40 41 42 43 44 45 46 47 48 49 50
000
ASUS44 KMAF 292310
RWRMAF
MIDLAND AREA WEATHER ROUNDUP
NATIONAL WEATHER SERVICE MIDLAND TX
500 PM CST THU JAN 29 2015

...IN SOUTHWEST TEXAS AND SOUTHEAST NEW MEXICO...

CITY           SKY/WX    TMP DP  RH WIND       PRES   REMARKS
ALPINE         PTSUNNY   57  37  46 NE15      30.40S
ANDREWS        FAIR      56  29  35 NE17G23   30.39R
ARTESIA        CLOUDY    54  28  37 E7        30.43R
BIG SPRING     PTSUNNY   60  29  31 NE20      30.40S
CARLSBAD       CLOUDY    56  31  38 NE10      30.40S
DRYDEN           N/A     76  40  27 NE15      30.21S
FORT STOCKTON  MOSUNNY   65  37  35 NE17G23   30.32R
GUAD PASS      CLOUDY    45  32  60 NE44G49   30.32F WCI  33
HOBBS          PTSUNNY   54  25  32 NE20      30.41F
MARFA          PTSUNNY   55  36  47 N22G29    30.33R
MIDLAND AIRPK  PTSUNNY   59  30  33 NE17      30.39R
MIDLAND INTL   PTSUNNY   59  32  36 NE22      30.37R
ODESSA         MOSUNNY   58  31  35 NE20G26   30.38R
PECOS          PTSUNNY   62  35  36 N14       30.35R
PRESIDIO       MOCLDY    73  42  32 N23G30    30.17R
SEMINOLE       CLOUDY    55  26  32 NE17G23   30.41F
SNYDER         PTSUNNY  N/A N/A N/A NE17G26   30.40R
WINK           CLOUDY    61  30  31 E15       30.34R
$$
...OTHER STATIONS IN TEXAS...

CITY           SKY/WX    TMP DP  RH WIND       PRES   REMARKS
ABILENE        CLOUDY    58  34  40 N17G25    30.38R
AMARILLO       CLOUDY    46  26  45 N15       30.47F WCI  40
AUSTIN         MOSUNNY   74  52  46 NE15      30.21R
BROWNSVILLE    SUNNY     74  61  63 SE13      30.16R
CORPUS CHRISTI PTSUNNY   71  60  68 E14       30.18S
DALLAS FTW     PTSUNNY   62  34  35 N17G25    30.32R
DEL RIO        PTSUNNY   78  49  35 SE6       30.17R
EL PASO        CLOUDY    58  32  37 E22G28    30.27F
HOUSTON INT    PTSUNNY   74  58  57 W3        30.20S
LUBBOCK        CLOUDY    52  23  32 NE16G24   30.44R
SAN ANGELO     PTSUNNY   63  37  38 N16       30.33R
SAN ANTONIO    PTSUNNY   73  55  53 SE7       30.21R
WACO           CLOUDY    67  39  35 N14       30.27R
WICHITA FALLS  NOT AVBL
$$
...OTHER LOCATIONS IN NEW MEXICO...

CITY           SKY/WX    TMP DP  RH WIND       PRES   REMARKS
ALAMAGORDO     CLOUDY    57  37  47 S7        30.30S
ALBUQUERQUE    CLOUDY    49  23  36 E22       30.37S
CANNON AFB     CLOUDY    46  22  38 NE13      30.45S
CLOVIS         CLOUDY    46  23  39 NE13      30.45F
HOLLOMAN AFB   PTSUNNY   59  34  38 S6        30.27F
ROSWELL        CLOUDY    56  29  35 E6        30.42R
RUIDOSO        CLOUDY    39  27  60 E14       30.47S WCI  31
SANTA FE       CLOUDY    46  22  38 SE17      30.40R WCI  39
TRUTH OR CONSE CLOUDY    55  30  38 N18       30.28F
TUCUMCARI      NOT AVBL
$$



USA.gov is the U.S. government's official web portal to all federal, state and local government web resources and services.